Date String (YYYY-MM-DD hh:mm:ss) UTC,Instrument flags,Ambient pressure (hPa),Sample flow (lpm),Bypass flow (lpm),Sample temperature (°C),Ambient temperature (°C),ASC tube jacket temperature (°C),LED temperature (°C),Box temperature (°C),Sample RH (%),Span deviation,Mass concentration (μg/m³),Mass concentration (μg/m³),Mass concentration (μg/m³)
DateTimeUTC,F1_M11,P_M11,Q1_M11,Q2_M11,T1_M11,T2_M11,T3_M11,T4_M11,T5_M11,U1_M11,ZSPAN_M11,X0_M11,X2_M11,X1_M11
2022-01-16 21:00:00,,0826.1,5.01,0.00,26.9,26.2,00.0,35.7,28.7,10.0,0000.0,0013.15,0006.79,0006.13
2022-01-16 21:01:00,,0826.1,4.98,0.00,26.9,26.2,00.0,35.7,28.7,09.9,0000.0,0013.52,0006.81,0006.18
2022-01-16 21:02:00,,0826.2,5.02,0.00,26.9,26.2,00.0,35.7,28.7,09.9,0000.0,0013.30,0006.84,0006.23
2022-01-16 21:03:00,,0826.1,4.99,0.00,26.9,26.2,00.0,35.8,28.7,09.9,0000.0,0012.24,0006.85,0006.26
2022-01-16 21:04:00,,0826.1,5.00,0.00,26.9,26.2,00.0,35.8,28.8,10.0,0000.0,0011.97,0006.80,0006.25
2022-01-16 21:05:00,,0826.1,5.02,0.00,26.9,26.2,00.0,35.8,28.8,09.9,0000.0,0011.39,0006.77,0006.22
2022-01-16 21:06:00,,0826.2,4.99,0.00,26.9,26.2,00.0,35.8,28.8,09.9,0000.0,0011.43,0006.76,0006.19
2022-01-16 21:07:00,,0826.2,5.02,0.00,26.9,26.2,00.0,35.8,28.8,09.8,0000.0,0011.45,0006.75,0006.17
2022-01-16 21:08:00,,0826.2,4.99,0.00,27.0,26.2,00.0,35.8,28.8,09.7,0000.0,0011.44,0006.72,0006.13
2022-01-16 21:09:00,,0826.2,5.00,0.00,27.0,26.3,00.0,35.9,28.8,09.8,0000.0,0011.38,0006.70,0006.10
2022-01-16 21:10:00,,0826.2,4.99,0.00,27.0,26.3,00.0,35.9,28.8,09.7,0000.0,0011.46,0006.69,0006.07
2022-01-16 21:11:00,,0826.2,5.01,0.00,27.0,26.3,00.0,35.9,28.9,09.7,0000.0,0012.58,0006.67,0006.03
2022-01-16 21:12:00,,0826.2,5.00,0.00,27.0,26.3,00.0,35.9,28.9,09.5,0000.0,0012.60,0006.64,0005.98
2022-01-16 21:13:00,,0826.3,5.01,0.00,27.0,26.3,00.0,35.9,28.9,09.6,0000.0,0012.88,0006.61,0005.92
2022-01-16 21:14:00,,0826.3,4.98,0.00,27.0,26.3,00.0,35.9,28.9,09.6,0000.0,0012.94,0006.56,0005.88
2022-01-16 21:15:00,,0826.3,5.02,0.00,27.0,26.3,00.0,35.9,28.9,09.4,0000.0,0013.22,0006.57,0005.90
2022-01-16 21:16:00,,0826.4,4.98,0.00,27.0,26.3,00.0,35.9,28.9,09.4,0000.0,0013.87,0006.64,0005.93
2022-01-16 21:17:00,,0826.4,5.02,0.00,27.0,26.3,00.0,35.9,28.9,09.6,0000.0,0014.11,0006.66,0005.94
2022-01-16 21:18:00,,0826.5,4.98,0.00,27.1,26.3,00.0,35.9,28.9,09.4,0000.0,0014.08,0006.66,0005.95
2022-01-16 21:19:00,,0826.5,5.01,0.00,27.1,26.4,00.0,36.0,28.9,09.2,0000.0,0014.04,0006.64,0005.94
2022-01-16 21:20:00,,0826.5,4.99,0.00,27.1,26.4,00.0,36.0,28.9,09.1,0000.0,0013.93,0006.61,0005.95
2022-01-16 21:21:00,,0826.5,4.99,0.00,27.1,26.4,00.0,36.0,28.9,08.9,0000.0,0013.82,0006.58,0005.93
2022-01-16 21:22:00,,0826.5,5.02,0.00,27.1,26.4,00.0,36.0,29.0,08.8,0000.0,0012.66,0006.53,0005.91
2022-01-16 21:23:00,,0826.5,4.99,0.00,27.1,26.4,00.0,36.0,29.0,08.9,0000.0,0012.25,0006.55,0005.89
2022-01-16 21:24:00,,0826.5,5.01,0.00,27.1,26.4,00.0,36.0,29.0,08.9,0000.0,0012.52,0006.54,0005.89
2022-01-16 21:25:00,,0826.5,4.98,0.00,27.2,26.4,00.0,36.0,29.0,09.1,0000.0,0013.21,0006.54,0005.89
2022-01-16 21:26:00,,0826.5,5.01,0.00,27.2,26.4,00.0,36.1,29.0,09.2,0000.0,0013.29,0006.52,0005.88
2022-01-16 21:27:00,,0826.6,4.99,0.00,27.2,26.4,00.0,36.1,29.0,09.2,0000.0,0012.66,0006.48,0005.86
2022-01-16 21:28:00,,0826.6,5.01,0.00,27.2,26.4,00.0,36.1,29.0,09.2,0000.0,0012.32,0006.45,0005.85
2022-01-16 21:29:00,,0826.6,4.99,0.00,27.2,26.4,00.0,36.1,29.0,08.8,0000.0,0012.27,0006.42,0005.82
2022-01-16 21:30:00,,0826.6,5.01,0.00,27.2,26.4,00.0,36.1,29.0,08.9,0000.0,0012.40,0006.41,0005.81
2022-01-16 21:31:00,,0826.6,4.98,0.00,27.2,26.5,00.0,36.1,29.0,09.0,0000.0,0012.38,0006.37,0005.79
2022-01-16 21:32:00,,0826.6,5.01,0.00,27.2,26.5,00.0,36.1,29.0,09.0,0000.0,0012.37,0006.36,0005.79
2022-01-16 21:33:00,,0826.7,4.99,0.00,27.2,26.5,00.0,36.1,29.0,08.9,0000.0,0012.45,0006.36,0005.80
2022-01-16 21:34:00,,0826.7,5.01,0.00,27.2,26.5,00.0,36.1,29.0,08.9,0000.0,0012.27,0006.31,0005.80
2022-01-16 21:35:00,,0826.7,5.00,0.00,27.2,26.5,00.0,36.1,29.0,09.1,0000.0,0011.90,0006.31,0005.82
2022-01-16 21:36:00,,0826.7,5.01,0.00,27.2,26.5,00.0,36.1,29.1,08.7,0000.0,0011.56,0006.27,0005.81
2022-01-16 21:37:00,,0826.8,4.99,0.00,27.2,26.5,00.0,36.1,29.1,08.7,0000.0,0011.46,0006.27,0005.83
2022-01-16 21:38:00,,0826.8,5.00,0.00,27.3,26.5,00.0,36.2,29.1,08.7,0000.0,0012.02,0006.29,0005.85
2022-01-16 21:39:00,,0826.9,5.01,0.00,27.3,26.6,00.0,36.2,29.1,08.5,0000.0,0012.94,0006.30,0005.86
2022-01-16 21:40:00,,0826.8,4.98,0.00,27.3,26.6,00.0,36.2,29.2,08.4,0000.0,0013.01,0006.34,0005.91
2022-01-16 21:41:00,,0826.9,5.00,0.00,27.3,26.6,00.0,36.2,29.2,08.5,0000.0,0012.92,0006.37,0005.95
2022-01-16 21:42:00,,0827.0,4.99,0.00,27.3,26.6,00.0,36.2,29.2,08.5,0000.0,0013.35,0006.44,0005.99
2022-01-16 21:43:00,,0827.0,5.03,0.00,27.3,26.6,00.0,36.2,29.2,08.6,0000.0,0013.62,0006.50,0006.02
2022-01-16 21:44:00,,0826.9,4.99,0.00,27.4,26.7,00.0,36.2,29.2,08.6,0000.0,0013.65,0006.56,0006.06
2022-01-16 21:45:00,,0827.0,5.00,0.00,27.4,26.7,00.0,36.2,29.2,08.3,0000.0,0013.75,0006.57,0006.08
2022-01-16 21:46:00,,0827.0,5.01,0.00,27.4,26.7,00.0,36.3,29.2,08.3,0000.0,0013.71,0006.60,0006.08
2022-01-16 21:47:00,,0827.0,4.99,0.00,27.4,26.7,00.0,36.3,29.3,08.3,0000.0,0013.67,0006.63,0006.09
2022-01-16 21:48:00,,0827.0,5.01,0.00,27.4,26.7,00.0,36.3,29.3,08.4,0000.0,0013.51,0006.64,0006.10
2022-01-16 21:49:00,,0827.0,4.99,0.00,27.5,26.8,00.0,36.3,29.3,08.4,0000.0,0013.98,0006.65,0006.11
2022-01-16 21:50:00,,0827.0,5.00,0.00,27.5,26.8,00.0,36.3,29.3,08.2,0000.0,0012.92,0006.67,0006.13
2022-01-16 21:51:00,,0827.0,5.01,0.00,27.5,26.8,00.0,36.3,29.3,08.2,0000.0,0012.67,0006.65,0006.12
2022-01-16 21:52:00,,0827.0,4.99,0.00,27.5,26.8,00.0,36.3,29.3,08.1,0000.0,0012.58,0006.64,0006.12
2022-01-16 21:53:00,,0827.0,5.01,0.00,27.5,26.8,00.0,36.4,29.4,08.2,0000.0,0012.35,0006.63,0006.11
2022-01-16 21:54:00,,0827.0,5.00,0.00,27.5,26.8,00.0,36.4,29.4,08.1,0000.0,0012.14,0006.63,0006.12
2022-01-16 21:55:00,,0827.0,4.99,0.00,27.5,26.8,00.0,36.4,29.4,08.1,0000.0,0012.03,0006.58,0006.10
2022-01-16 21:56:00,,0827.1,5.01,0.00,27.6,26.8,00.0,36.4,29.4,08.1,0000.0,0011.86,0006.56,0006.09
2022-01-16 21:57:00,,0827.1,4.99,0.00,27.6,26.9,00.0,36.4,29.4,08.0,0000.0,0011.50,0006.56,0006.09
2022-01-16 21:58:00,,0827.1,5.01,0.00,27.6,26.9,00.0,36.5,29.4,08.1,0000.0,0011.73,0006.59,0006.12
2022-01-16 21:59:00,,0827.1,4.99,0.00,27.6,26.9,00.0,36.5,29.4,08.1,0000.0,0011.86,0006.61,0006.12
